EJU32DZ LPPS-LPPR

Flight info

Callsign EJU32DZ
Flight time 1h 33m
Altitude 38000
Route DEGUN DCT RULET DCT VABEM DCT LAMDI DCT ASMOV
Aircraft A320/M-SDE3FGHIRWY/LB1

Departure

Time 2026-04-26 13:47
Airport Porto Santo Airport (LPPS)

Arrival

Time 2026-04-26 15:21
Airport Francisco de Sá Carneiro Airport (LPPR)
Time Latitude Longitude Altitude Speed Heading
2026-04-26 13:35 33.06996 -16.34631 249 ft 0 kts 309°
2026-04-26 13:42 33.06997 -16.34651 249 ft 5 kts 241°
2026-04-26 13:42 33.06979 -16.34729 249 ft 14 kts 248°
2026-04-26 13:42 33.06961 -16.34851 249 ft 15 kts 268°
2026-04-26 13:43 33.06946 -16.34959 251 ft 11 kts 230°
2026-04-26 13:43 33.06858 -16.34973 251 ft 17 kts 178°
2026-04-26 13:43 33.06707 -16.34966 246 ft 27 kts 177°
2026-04-26 13:43 33.06512 -16.34959 245 ft 27 kts 178°
2026-04-26 13:44 33.06328 -16.34952 243 ft 26 kts 177°
2026-04-26 13:44 33.06166 -16.34941 245 ft 18 kts 164°
2026-04-26 13:44 33.06081 -16.34854 246 ft 15 kts 139°
2026-04-26 13:44 33.06006 -16.34848 247 ft 8 kts 221°
2026-04-26 13:45 33.06000 -16.34903 248 ft 5 kts 271°
2026-04-26 13:45 33.06010 -16.34933 248 ft 3 kts 308°
2026-04-26 13:45 33.06026 -16.34942 248 ft 3 kts 345°
2026-04-26 13:45 33.06044 -16.34943 248 ft 0 kts 358°
2026-04-26 13:46 33.06055 -16.34943 247 ft 8 kts 358°
2026-04-26 13:47 33.06313 -16.34952 243 ft 72 kts 358°
2026-04-26 13:47 33.07017 -16.34980 251 ft 128 kts 358°
2026-04-26 13:47 33.08046 -16.35019 399 ft 159 kts 358°
2026-04-26 13:47 33.09143 -16.35065 1041 ft 156 kts 360°
2026-04-26 13:48 33.10229 -16.35108 1597 ft 159 kts
2026-04-26 13:48 33.11411 -16.35132 1776 ft 180 kts
2026-04-26 13:48 33.12728 -16.35155 1909 ft 198 kts
2026-04-26 13:48 33.14185 -16.35185 2041 ft 221 kts
2026-04-26 13:49 33.15793 -16.35220 2268 ft 238 kts
2026-04-26 13:49 33.17468 -16.35259 2761 ft 242 kts
2026-04-26 13:49 33.19166 -16.35213 3268 ft 246 kts 12°
2026-04-26 13:49 33.20722 -16.34390 3760 ft 247 kts 38°
2026-04-26 13:50 33.21827 -16.32852 4262 ft 251 kts 62°
2026-04-26 13:50 33.22463 -16.30899 4807 ft 253 kts 70°
2026-04-26 13:50 33.23055 -16.28906 5304 ft 256 kts 70°
2026-04-26 13:50 33.23657 -16.26897 5825 ft 257 kts 70°
2026-04-26 13:51 33.24267 -16.24876 6321 ft 260 kts 70°
2026-04-26 13:51 33.24882 -16.22837 6785 ft 262 kts 70°
2026-04-26 13:51 33.25500 -16.20777 7258 ft 263 kts 70°
2026-04-26 13:51 33.26117 -16.18710 7713 ft 266 kts 70°
2026-04-26 13:52 33.26744 -16.16621 8150 ft 268 kts 70°
2026-04-26 13:52 33.27376 -16.14517 8602 ft 270 kts 70°
2026-04-26 13:52 33.28004 -16.12426 9039 ft 272 kts 70°
2026-04-26 13:52 33.28645 -16.10291 9467 ft 274 kts 70°
2026-04-26 13:53 33.29289 -16.08140 9881 ft 276 kts 70°
2026-04-26 13:53 33.29940 -16.05969 10224 ft 280 kts 70°
2026-04-26 13:53 33.30605 -16.03750 10423 ft 288 kts 70°
2026-04-26 13:53 33.31293 -16.01453 10546 ft 298 kts 70°
2026-04-26 13:54 33.31999 -15.99086 10659 ft 306 kts 70°
2026-04-26 13:54 33.32721 -15.96657 10806 ft 312 kts 70°
2026-04-26 13:54 33.33447 -15.94214 11093 ft 312 kts 70°
2026-04-26 13:55 33.34837 -15.89544 12392 ft 290 kts 70°
2026-04-26 13:55 33.35280 -15.88051 12757 ft 286 kts 71°
2026-04-26 13:55 33.36882 -15.82660 13846 ft 315 kts 71°
2026-04-26 13:56 33.37632 -15.80139 13978 ft 336 kts 71°
2026-04-26 13:56 33.38427 -15.77455 14359 ft 346 kts 71°
2026-04-26 13:56 33.39236 -15.74721 14921 ft 351 kts 71°
2026-04-26 13:56 33.40056 -15.71954 15513 ft 355 kts 71°
2026-04-26 13:57 33.40906 -15.69165 16101 ft 358 kts 67°
2026-04-26 13:57 33.42114 -15.66544 16677 ft 363 kts 55°
2026-04-26 13:57 33.43773 -15.64245 17242 ft 368 kts 43°
2026-04-26 13:57 33.45800 -15.62341 17808 ft 372 kts 37°
2026-04-26 13:58 33.47900 -15.60505 18376 ft 376 kts 37°
2026-04-26 13:58 33.50016 -15.58646 18871 ft 379 kts 37°
2026-04-26 13:58 33.52150 -15.56765 19350 ft 382 kts 37°
2026-04-26 13:58 33.54300 -15.54866 19830 ft 386 kts 37°
2026-04-26 13:59 33.56470 -15.52943 20299 ft 389 kts 37°
2026-04-26 13:59 33.58654 -15.51006 20756 ft 393 kts 37°
2026-04-26 13:59 33.60863 -15.49049 21212 ft 396 kts 37°
2026-04-26 14:00 33.67603 -15.43084 22557 ft 406 kts 36°
2026-04-26 14:00 33.69885 -15.41055 22981 ft 410 kts 36°
2026-04-26 14:00 33.71406 -15.39702 23264 ft 412 kts 36°
2026-04-26 14:01 33.74506 -15.36947 23801 ft 417 kts 36°
2026-04-26 14:01 33.76842 -15.34870 24158 ft 419 kts 36°
2026-04-26 14:01 33.79163 -15.32804 24503 ft 422 kts 36°
2026-04-26 14:01 33.81530 -15.30696 24850 ft 425 kts 37°
2026-04-26 14:02 33.83942 -15.28547 25217 ft 427 kts 37°
2026-04-26 14:02 33.86337 -15.26413 25562 ft 429 kts 37°
2026-04-26 14:02 33.88710 -15.24297 25894 ft 432 kts 37°
2026-04-26 14:02 33.91131 -15.22138 26228 ft 434 kts 37°
2026-04-26 14:03 33.93564 -15.19966 26569 ft 437 kts 37°
2026-04-26 14:03 33.96015 -15.17776 26905 ft 439 kts 37°
2026-04-26 14:03 33.98476 -15.15573 27228 ft 441 kts 37°
2026-04-26 14:03 34.00944 -15.13357 27544 ft 444 kts 37°
2026-04-26 14:04 34.03423 -15.11127 27878 ft 446 kts 37°
2026-04-26 14:04 34.05916 -15.08882 28203 ft 448 kts 37°
2026-04-26 14:04 34.08422 -15.06627 28530 ft 451 kts 37°
2026-04-26 14:04 34.10942 -15.04367 28849 ft 453 kts 37°
2026-04-26 14:05 34.13478 -15.02094 29145 ft 455 kts 37°
2026-04-26 14:05 34.16020 -14.99811 29434 ft 457 kts 37°
2026-04-26 14:05 34.18540 -14.97542 29724 ft 459 kts 37°
2026-04-26 14:05 34.21103 -14.95231 30011 ft 460 kts 37°
2026-04-26 14:06 34.23673 -14.92908 30272 ft 462 kts 37°
2026-04-26 14:06 34.26353 -14.90751 30509 ft 464 kts 30°
2026-04-26 14:06 34.29184 -14.88851 30741 ft 466 kts 29°
2026-04-26 14:06 34.32032 -14.86943 30976 ft 467 kts 29°
2026-04-26 14:07 34.34873 -14.85042 31313 ft 466 kts 29°
2026-04-26 14:07 34.37708 -14.83141 31642 ft 465 kts 29°
2026-04-26 14:07 34.40533 -14.81240 31966 ft 465 kts 30°
2026-04-26 14:07 34.43357 -14.79336 32296 ft 464 kts 30°
2026-04-26 14:08 34.46171 -14.77437 32618 ft 463 kts 30°
2026-04-26 14:08 34.48982 -14.75537 32944 ft 462 kts 30°
2026-04-26 14:08 34.51792 -14.73633 33264 ft 462 kts 30°
2026-04-26 14:08 34.54597 -14.71737 33590 ft 461 kts 30°
2026-04-26 14:09 34.57398 -14.69844 33905 ft 460 kts 30°
2026-04-26 14:09 34.60191 -14.67951 34212 ft 460 kts 30°
2026-04-26 14:09 34.62977 -14.66060 34492 ft 459 kts 30°
2026-04-26 14:09 34.65768 -14.64168 34759 ft 458 kts 30°
2026-04-26 14:10 34.68546 -14.62285 35013 ft 458 kts 30°
2026-04-26 14:10 34.71331 -14.60398 35247 ft 458 kts 30°
2026-04-26 14:10 34.74074 -14.58535 35474 ft 458 kts 30°
2026-04-26 14:10 34.76853 -14.56644 35704 ft 458 kts 30°
2026-04-26 14:11 34.82407 -14.52858 36144 ft 457 kts 30°
2026-04-26 14:11 34.85187 -14.50963 36355 ft 457 kts 30°
2026-04-26 14:11 34.87957 -14.49071 36568 ft 457 kts 30°
2026-04-26 14:12 34.90731 -14.47175 36768 ft 457 kts 30°
2026-04-26 14:12 34.93497 -14.45286 36958 ft 457 kts 30°
2026-04-26 14:12 34.96269 -14.43388 37160 ft 456 kts 30°
2026-04-26 14:12 34.99036 -14.41487 37351 ft 456 kts 30°
2026-04-26 14:13 35.04560 -14.37692 37719 ft 456 kts 30°
2026-04-26 14:13 35.07323 -14.35799 37914 ft 455 kts 30°
2026-04-26 14:13 35.10088 -14.33905 38094 ft 455 kts 30°
2026-04-26 14:14 35.12849 -14.32010 38156 ft 455 kts 30°
2026-04-26 14:14 35.18368 -14.28213 38152 ft 454 kts 30°
2026-04-26 14:15 35.23874 -14.24412 38152 ft 454 kts 30°
2026-04-26 14:15 35.29380 -14.20614 38153 ft 454 kts 30°
2026-04-26 14:16 35.34887 -14.16802 38154 ft 455 kts 30°
2026-04-26 14:16 35.40394 -14.12990 38154 ft 455 kts 30°
2026-04-26 14:17 35.45913 -14.09168 38160 ft 455 kts 30°
2026-04-26 14:17 35.51426 -14.05337 38163 ft 455 kts 30°
2026-04-26 14:18 35.56951 -14.01504 38166 ft 455 kts 30°
2026-04-26 14:18 35.62461 -13.97651 38173 ft 455 kts 30°
2026-04-26 14:19 35.67928 -13.93826 38170 ft 455 kts 30°
2026-04-26 14:19 35.73477 -13.89963 38172 ft 455 kts 30°
2026-04-26 14:20 35.78944 -13.86132 38174 ft 455 kts 30°
2026-04-26 14:20 35.84455 -13.82259 38171 ft 456 kts 30°
2026-04-26 14:21 35.89961 -13.78388 38173 ft 456 kts 30°
2026-04-26 14:21 35.95471 -13.74521 38171 ft 456 kts 30°
2026-04-26 14:22 36.00982 -13.70638 38160 ft 456 kts 30°
2026-04-26 14:22 36.06495 -13.66743 38163 ft 456 kts 30°
2026-04-26 14:23 36.12005 -13.62843 38163 ft 456 kts 30°
2026-04-26 14:23 36.17512 -13.58940 38162 ft 456 kts 30°
2026-04-26 14:24 36.23024 -13.55036 38165 ft 456 kts 30°
2026-04-26 14:24 36.28539 -13.51118 38165 ft 457 kts 30°
2026-04-26 14:25 36.33119 -13.47856 38166 ft 457 kts 30°
2026-04-26 14:25 36.38635 -13.43933 38171 ft 457 kts 30°
2026-04-26 14:26 36.45044 -13.39355 38168 ft 457 kts 30°
2026-04-26 14:26 36.50554 -13.35411 38165 ft 457 kts 30°
2026-04-26 14:27 36.55164 -13.32091 38166 ft 457 kts 31°
2026-04-26 14:27 36.60464 -13.27820 38165 ft 457 kts 35°
2026-04-26 14:28 36.65660 -13.23251 38166 ft 457 kts 36°
2026-04-26 14:28 36.70859 -13.18683 38165 ft 457 kts 35°
2026-04-26 14:29 36.76100 -13.14199 38163 ft 457 kts 34°
2026-04-26 14:29 36.81361 -13.09726 38162 ft 458 kts 34°
2026-04-26 14:30 36.86620 -13.05237 38158 ft 458 kts 34°
2026-04-26 14:30 36.91875 -13.00726 38161 ft 458 kts 35°
2026-04-26 14:31 36.97130 -12.96201 38167 ft 459 kts 35°
2026-04-26 14:31 37.02386 -12.91676 38165 ft 459 kts 35°
2026-04-26 14:32 37.07617 -12.87172 38166 ft 459 kts 34°
2026-04-26 14:32 37.12884 -12.82619 38168 ft 460 kts 35°
2026-04-26 14:33 37.18153 -12.78059 38165 ft 460 kts 35°
2026-04-26 14:33 37.23418 -12.73489 38163 ft 461 kts 35°
2026-04-26 14:34 37.28693 -12.68902 38168 ft 461 kts 35°
2026-04-26 14:34 37.33969 -12.64303 38168 ft 461 kts 35°
2026-04-26 14:35 37.39251 -12.59699 38167 ft 462 kts 34°
2026-04-26 14:35 37.44540 -12.55094 38163 ft 462 kts 34°
2026-04-26 14:36 37.49825 -12.50473 38161 ft 463 kts 34°
2026-04-26 14:36 37.55076 -12.45876 38161 ft 463 kts 34°
2026-04-26 14:37 37.60355 -12.41233 38166 ft 462 kts 34°
2026-04-26 14:37 37.65625 -12.36595 38173 ft 462 kts 34°
2026-04-26 14:38 37.70894 -12.31958 38173 ft 461 kts 34°
2026-04-26 14:38 37.76163 -12.27316 38166 ft 461 kts 35°
2026-04-26 14:39 37.81412 -12.22674 38168 ft 461 kts 35°
2026-04-26 14:39 37.86657 -12.18018 38160 ft 460 kts 34°
2026-04-26 14:40 37.91898 -12.13361 38160 ft 460 kts 34°
2026-04-26 14:40 37.97110 -12.08725 38155 ft 460 kts 34°
2026-04-26 14:41 38.02349 -12.04062 38156 ft 460 kts 34°
2026-04-26 14:41 38.07591 -11.99391 38147 ft 461 kts 34°
2026-04-26 14:42 38.12834 -11.94714 38150 ft 461 kts 34°
2026-04-26 14:42 38.18070 -11.90023 38153 ft 461 kts 34°
2026-04-26 14:43 38.23307 -11.85316 38156 ft 461 kts 34°
2026-04-26 14:43 38.28554 -11.80606 38155 ft 461 kts 34°
2026-04-26 14:44 38.33785 -11.75894 38157 ft 461 kts 34°
2026-04-26 14:44 38.39017 -11.71177 38156 ft 461 kts 34°
2026-04-26 14:45 38.44257 -11.66442 38157 ft 461 kts 34°
2026-04-26 14:45 38.49497 -11.61730 38158 ft 461 kts 34°
2026-04-26 14:46 38.54739 -11.57108 38158 ft 461 kts 33°
2026-04-26 14:46 38.60038 -11.52475 38157 ft 461 kts 33°
2026-04-26 14:47 38.65325 -11.47829 38155 ft 461 kts 33°
2026-04-26 14:47 38.70610 -11.43164 38162 ft 461 kts 33°
2026-04-26 14:48 38.75879 -11.38495 38160 ft 460 kts 33°
2026-04-26 14:48 38.81143 -11.33821 38162 ft 460 kts 33°
2026-04-26 14:49 38.86403 -11.29145 38158 ft 460 kts 33°
2026-04-26 14:49 38.91632 -11.24502 38163 ft 460 kts 33°
2026-04-26 14:50 38.96892 -11.19826 38160 ft 459 kts 33°
2026-04-26 14:50 39.02137 -11.15136 38163 ft 459 kts 33°
2026-04-26 14:51 39.07373 -11.10445 38160 ft 459 kts 33°
2026-04-26 14:51 39.12615 -11.05743 38161 ft 458 kts 33°
2026-04-26 14:52 39.17843 -11.01050 38158 ft 458 kts 33°
2026-04-26 14:52 39.23065 -10.96348 38158 ft 458 kts 33°
2026-04-26 14:53 39.28279 -10.91639 38156 ft 458 kts 33°
2026-04-26 14:53 39.33493 -10.86920 38152 ft 457 kts 33°
2026-04-26 14:54 39.38707 -10.82207 38153 ft 457 kts 33°
2026-04-26 14:54 39.43924 -10.77493 38156 ft 457 kts 33°
2026-04-26 14:55 39.49135 -10.72767 38159 ft 457 kts 33°
2026-04-26 14:55 39.54340 -10.68028 38157 ft 457 kts 33°
2026-04-26 14:56 39.59539 -10.63286 38158 ft 457 kts 33°
2026-04-26 14:56 39.64730 -10.58537 38157 ft 456 kts 33°
2026-04-26 14:57 39.69923 -10.53790 38155 ft 456 kts 33°
2026-04-26 14:57 39.75109 -10.49043 38148 ft 456 kts 33°
2026-04-26 14:58 39.80260 -10.44312 38157 ft 456 kts 33°
2026-04-26 14:58 39.85434 -10.39541 38145 ft 456 kts 33°
2026-04-26 14:59 39.90613 -10.34761 38117 ft 456 kts 33°
2026-04-26 14:59 39.93197 -10.32375 37838 ft 455 kts 33°
2026-04-26 14:59 39.95780 -10.29994 37567 ft 455 kts 33°
2026-04-26 14:59 39.97493 -10.28416 37385 ft 455 kts 33°
2026-04-26 15:00 40.00953 -10.25225 37028 ft 456 kts 33°
2026-04-26 15:00 40.03541 -10.22829 36763 ft 456 kts 33°
2026-04-26 15:00 40.06125 -10.20430 36200 ft 458 kts 34°
2026-04-26 15:00 40.08733 -10.18007 35381 ft 461 kts 34°
2026-04-26 15:01 40.11365 -10.15561 34531 ft 466 kts 34°
2026-04-26 15:01 40.13984 -10.13123 33543 ft 472 kts 34°
2026-04-26 15:01 40.16691 -10.10597 32875 ft 469 kts 34°
2026-04-26 15:01 40.19336 -10.08127 32291 ft 465 kts 34°
2026-04-26 15:02 40.21922 -10.05713 31694 ft 461 kts 34°
2026-04-26 15:02 40.24523 -10.03280 31088 ft 458 kts 34°
2026-04-26 15:02 40.27101 -10.00866 30504 ft 454 kts 35°
2026-04-26 15:02 40.29662 -9.98469 29871 ft 451 kts 35°
2026-04-26 15:03 40.32202 -9.96093 29287 ft 446 kts 34°
2026-04-26 15:03 40.34713 -9.93743 28715 ft 441 kts 35°
2026-04-26 15:03 40.37198 -9.91416 28146 ft 436 kts 35°
2026-04-26 15:03 40.39657 -9.89112 27604 ft 432 kts 35°
2026-04-26 15:04 40.42044 -9.86735 26773 ft 433 kts 43°
2026-04-26 15:04 40.43956 -9.83646 25904 ft 438 kts 58°
2026-04-26 15:04 40.45558 -9.80296 25465 ft 430 kts 57°
2026-04-26 15:04 40.47155 -9.77002 24956 ft 425 kts 57°
2026-04-26 15:05 40.48742 -9.73749 24402 ft 419 kts 57°
2026-04-26 15:05 40.49252 -9.72704 24149 ft 417 kts 57°
2026-04-26 15:05 40.51851 -9.67386 22653 ft 408 kts 57°
2026-04-26 15:05 40.53371 -9.64269 21799 ft 402 kts 57°
2026-04-26 15:06 40.54867 -9.61192 21025 ft 396 kts 57°
2026-04-26 15:06 40.56325 -9.58184 20513 ft 383 kts 57°
2026-04-26 15:06 40.57717 -9.55311 20043 ft 372 kts 57°
2026-04-26 15:06 40.59105 -9.52444 19567 ft 365 kts 57°
2026-04-26 15:07 40.61809 -9.46853 18649 ft 363 kts 57°
2026-04-26 15:07 40.63162 -9.44046 18145 ft 363 kts 57°
2026-04-26 15:07 40.64511 -9.41246 17684 ft 360 kts 57°
2026-04-26 15:08 40.65849 -9.38466 17227 ft 358 kts 57°
2026-04-26 15:08 40.67173 -9.35710 16774 ft 355 kts 57°
2026-04-26 15:08 40.68488 -9.32957 16331 ft 353 kts 58°
2026-04-26 15:08 40.69731 -9.30183 15901 ft 351 kts 60°
2026-04-26 15:09 40.70918 -9.27386 15470 ft 349 kts 61°
2026-04-26 15:09 40.72079 -9.24586 15024 ft 347 kts 61°
2026-04-26 15:09 40.73229 -9.21792 14590 ft 346 kts 61°
2026-04-26 15:09 40.74375 -9.19013 14151 ft 344 kts 61°
2026-04-26 15:10 40.75508 -9.16274 13684 ft 343 kts 61°
2026-04-26 15:10 40.76281 -9.14413 13377 ft 342 kts 61°
2026-04-26 15:10 40.77795 -9.10791 12788 ft 338 kts 61°
2026-04-26 15:10 40.78929 -9.08084 12350 ft 336 kts 61°
2026-04-26 15:11 40.80052 -9.05399 11895 ft 334 kts 61°
2026-04-26 15:11 40.81170 -9.02723 11455 ft 332 kts 61°
2026-04-26 15:11 40.82282 -9.00065 11006 ft 330 kts 61°
2026-04-26 15:11 40.83385 -8.97421 10555 ft 328 kts 61°
2026-04-26 15:12 40.84476 -8.94799 10294 ft 320 kts 61°
2026-04-26 15:12 40.85515 -8.92306 10158 ft 300 kts 61°
2026-04-26 15:12 40.86503 -8.89933 9804 ft 292 kts 61°
2026-04-26 15:12 40.87471 -8.87607 9603 ft 288 kts 62°
2026-04-26 15:13 40.88429 -8.85301 9254 ft 286 kts 62°
2026-04-26 15:13 40.89382 -8.83002 8871 ft 284 kts 62°
2026-04-26 15:13 40.90328 -8.80722 8518 ft 282 kts 62°
2026-04-26 15:13 40.91270 -8.78455 8125 ft 281 kts 62°
2026-04-26 15:14 40.92208 -8.76193 7730 ft 280 kts 62°
2026-04-26 15:14 40.93137 -8.73944 7363 ft 278 kts 62°
2026-04-26 15:14 40.94046 -8.71739 6993 ft 273 kts 62°
2026-04-26 15:14 40.94938 -8.69575 6635 ft 264 kts 62°
2026-04-26 15:15 40.95801 -8.67486 6277 ft 252 kts 62°
2026-04-26 15:15 40.96627 -8.65487 5939 ft 245 kts 62°
2026-04-26 15:15 40.97497 -8.63542 5611 ft 248 kts 51°
2026-04-26 15:15 40.98863 -8.62153 5276 ft 250 kts 22°
2026-04-26 15:16 41.00540 -8.61777 4928 ft 244 kts 354°
2026-04-26 15:16 41.02190 -8.62178 4565 ft 238 kts 348°
2026-04-26 15:16 41.03262 -8.62466 4333 ft 236 kts 348°
2026-04-26 15:16 41.04861 -8.62895 3941 ft 233 kts 348°
2026-04-26 15:17 41.06429 -8.63313 3601 ft 227 kts 348°
2026-04-26 15:17 41.07460 -8.63585 3410 ft 222 kts 348°
2026-04-26 15:17 41.09393 -8.64087 3045 ft 205 kts 348°
2026-04-26 15:17 41.10734 -8.64433 2811 ft 188 kts 348°
2026-04-26 15:18 41.11975 -8.64755 2529 ft 177 kts 348°
2026-04-26 15:18 41.13152 -8.65061 2313 ft 169 kts 348°
2026-04-26 15:18 41.14270 -8.65351 2088 ft 157 kts 348°
2026-04-26 15:18 41.15308 -8.65622 1881 ft 148 kts 348°
2026-04-26 15:19 41.16302 -8.65880 1646 ft 144 kts 347°
2026-04-26 15:19 41.17268 -8.66136 1509 ft 142 kts 346°
2026-04-26 15:19 41.18257 -8.66408 1310 ft 148 kts 346°
2026-04-26 15:19 41.19234 -8.66669 1111 ft 142 kts 346°
2026-04-26 15:20 41.20211 -8.66929 940 ft 145 kts 348°
2026-04-26 15:20 41.21189 -8.67178 716 ft 142 kts 348°
2026-04-26 15:20 41.22160 -8.67438 507 ft 143 kts 347°
2026-04-26 15:20 41.23139 -8.67690 318 ft 147 kts 347°
2026-04-26 15:21 41.24070 -8.67935 218 ft 120 kts 348°
2026-04-26 15:21 41.24720 -8.68105 205 ft 70 kts 349°
2026-04-26 15:21 41.25065 -8.68181 190 ft 33 kts
2026-04-26 15:21 41.25240 -8.68126 178 ft 19 kts 17°
2026-04-26 15:22 41.25292 -8.68077 175 ft 0 kts 63°
2026-04-26 15:22 41.25293 -8.68073 175 ft 1 kts 70°
2026-04-26 15:22 41.25293 -8.68066 175 ft 1 kts 85°
2026-04-26 15:22 41.25290 -8.68050 175 ft 1 kts 110°
2026-04-26 15:23 41.25260 -8.68020 178 ft 13 kts 157°
2026-04-26 15:23 41.25166 -8.67990 183 ft 15 kts 167°
2026-04-26 15:23 41.25049 -8.67958 192 ft 19 kts 168°
2026-04-26 15:23 41.24920 -8.67925 190 ft 19 kts 166°
2026-04-26 15:24 41.24769 -8.67837 210 ft 25 kts 160°
2026-04-26 15:24 41.24612 -8.67788 211 ft 22 kts 169°
2026-04-26 15:24 41.24462 -8.67748 218 ft 21 kts 169°
2026-04-26 15:24 41.24328 -8.67711 226 ft 18 kts 163°
2026-04-26 15:25 41.24248 -8.67616 232 ft 13 kts 134°
2026-04-26 15:25 41.24187 -8.67571 239 ft 17 kts 165°
2026-04-26 15:25 41.24051 -8.67535 237 ft 14 kts 168°
2026-04-26 15:25 41.23931 -8.67503 237 ft 17 kts 169°
2026-04-26 15:26 41.23834 -8.67478 237 ft 12 kts 162°
2026-04-26 15:26 41.23826 -8.67410 237 ft 7 kts 78°
2026-04-26 15:26 41.23830 -8.67380 237 ft 1 kts 81°
2026-04-26 15:26 41.23830 -8.67379 237 ft 0 kts 81°